GLOBALSTAR M094 [+] (39074 NORAD) Tracking and Keplerian Element Data

This shows tracking and keplerian element data for the satellite.

Feedback or suggestion? Click here.




ElementValue
Catalog39074
NameGLOBALSTAR M094 [+]
Epoch Orbit25331
Epoch Day198.73074132
Epoch Year2018
RAAN314.4575
Inclination51.9972
Eccentricity0.0001162
Argument of Perigee115.4039
Mean Anonmoly244.6948
Mean Motion12.62269577
Decay Rate-8.6E-07
L11 39074U 13005C 18198.73074132 -.00000086 00000-0 10146-3 0 9996
L22 39074 51.9972 314.4575 0001162 115.4039 244.6948 12.62269577253318

Live tracking and technical data element details for GLOBALSTAR M094 [+] (NORAD 39074). GLOBALSTAR M094 [+] can be tracked NOW for your location showing map with azimuth and elevation plus other details from your city location.

Track the satellite on the map from your city or location and see movement details for azimuth, elevation, latitude, longitude, range, height, and movement on the map or in text.







IsCatalogInMostPopularTable: catalog: 39074, numindb: 63
Update: records affected: 1



GetName: 39074 GLOBALSTAR M094 [+]

Hit Count: updated at: Fri, 20 Jul 2018 20:32:34 GMT